Regional Weather Roundup
Issued by NWS

Home | Current Version | Previous Version | Graphics & Text | Print | Product List | Glossary On
Versions: 1 2 3 4 5 6 7 8 9 10 11 12 13 14 15 16 17 18 19 20 21 22 23 24 25 26 27 28 29 30 31 32 33 34 35 36 37 38 39 40 41 42 43 44 45 46 47 48 49 50
985
ASUS43 KMPX 220701
RWRMN
WEATHER ROUNDUP FOR MINNESOTA
NATIONAL WEATHER SERVICE TWIN CITIES/CHANHASSEN MN
200 AM CDT SUN APR 22 2018


NOTE: "FAIR" INDICATES FEW OR NO CLOUDS BELOW 12,000 FEET WITH NO
SIGNIFICANT WEATHER AND/OR OBSTRUCTIONS TO VISIBILITY. N/A MEANS
CURRENT SKY AND/OR WEATHER CONDITIONS ARE NOT AVAILABLE.

MNZ060>063-068>070-220800-
   Twin Cities Metro

CITY           SKY/WX    TMP DP  RH WIND       PRES   REMARKS
TWIN CITIES    FAIR      44  33  65 CALM      30.35S
ST PAUL        FAIR      39  33  79 CALM      30.36S
CRYSTAL        FAIR      36  25  64 CALM      30.33S
BLAINE         FAIR      36  27  69 CALM      30.34S
LAKEVILLE      FAIR      30  30 100 CALM      30.34S
EDEN PRAIRIE   FAIR      38  30  73 CALM      30.33S
SOUTH ST PAUL  FAIR      37  31  79 CALM      30.35R
LAKE ELMO      FAIR      34  32  93 CALM      30.35F
$$
MNZ001>005-007-008-013>017-022>024-027-028-220800-
   Northwest Minnesota

CITY           SKY/WX    TMP DP  RH WIND       PRES   REMARKS
BEMIDJI        FAIR      41  30  65 S5        30.27F
HALLOCK        FAIR      45  41  87 S13       30.21R
ROSEAU         FAIR      41  36  81 S7        30.24S
WARROAD        FAIR      41  37  87 S5        30.25R
THIEF RVR FALL FAIR      44  37  76 S12       30.26S
CROOKSTON      FAIR      46  39  76 S14       30.26S
FOSSTON        FAIR      36  30  80 S8        30.28S
DETROIT LAKES  FAIR      37  34  87 CALM      30.30S
MOORHEAD       FAIR      43  36  75 S9        30.29S
PARK RAPIDS    FAIR      38  30  73 S3        30.29R
MAHNOMEN       FAIR      37  33  85 S8        30.28R
$$
MNZ006-009>011-018-025>026-220800-
   North Central Minnesota

CITY           SKY/WX    TMP DP  RH WIND       PRES   REMARKS
BAUDETTE       FAIR      39  28  64 CALM      30.25S
FLAG ISLAND    FAIR      34  28  80 S5        30.23F WCI  30
INTL FALLS     FAIR      34  25  69 CALM      30.27F
WASKISH        FAIR      45  28  53 S5        30.27S
BIG FORK       FAIR      30  23  74 CALM      30.30S
LONGVILLE      FAIR      28  25  86 CALM      30.29F
GRAND RAPIDS   FAIR      37  19  48 S3        30.32F
CRANE LAKE     FAIR      25  23  93 CALM      30.32F
ORR            FAIR      39  16  38 CALM      30.28F
COOK           FAIR      28  23  80 CALM      30.31F
WALKER         FAIR      39  29  65 SW5       30.29S
$$
MNZ012-019>021-037-220800-
   Northeast Minnesota

CITY           SKY/WX    TMP DP  RH WIND       PRES   REMARKS
DULUTH         FAIR      36  18  48 CALM      30.32F
ELY            FAIR      30  18  59 CALM      30.32F
HIBBING        FAIR      26  22  84 CALM      30.31F
EVELETH        FAIR      28  22  80 CALM      30.34S
DULUTH HARBOR  FAIR      36  27  69 NE3       30.35S
TWO HARBORS    FAIR      28  23  80 CALM      30.32S
SILVER BAY     FAIR      28  21  74 CALM      30.32F
GRAND MARAIS     N/A     31  23  72 NW3       30.35F
G MARAIS ARPRT FAIR      27  19  74 CALM      30.34F
$$
MNZ029>031-032-039>041-046>048-054>057-064-220800-
   West Central Minnesota

CITY           SKY/WX    TMP DP  RH WIND       PRES   REMARKS
FERGUS FALLS   FAIR      36  34  93 S8        30.29F
WHEATON        CLEAR     39  34  81 S6        30.32F
MORRIS         CLEAR     36  34  93 SE6       30.30F
ALEXANDRIA     FAIR      41  35  79 S6        30.32S
ELBOW LAKE     FAIR      34  32  93 SE8       30.31F WCI  27
WADENA         FAIR      36  30  80 CALM      30.31R
GLENWOOD       FAIR      37  36  93 CALM      30.32F
APPLETON       CLEAR     36  32  87 CALM      30.32S
BENSON         CLEAR     32  30  93 CALM      30.34S FOG
ORTONVILLE     CLEAR     34  30  86 SE3       30.31S
MADISON        CLEAR     37  36  93 CALM      30.31F
WILLMAR        FAIR      34  34 100 CALM      30.35S
$$
MNZ033>034-036-042>043-049>051-058-059-220800-
   Central Minnesota

CITY           SKY/WX    TMP DP  RH WIND       PRES   REMARKS
ST CLOUD       FAIR      33  29  85 CALM      30.33S
SAUK CENTRE    FAIR      34  32  92 CALM      30.32F
PAYNESVILLE    FAIR      32  32  99 CALM      30.33F
AITKIN         FAIR      25  21  86 CALM      30.30S
PINE RIVER     FAIR      30  25  80 CALM      30.33S
BRAINERD       FAIR      32  24  72 CALM      30.31S
STAPLES        FAIR      34  28  80 S3        30.31S
LONG PRAIRIE   FAIR      32  30  93 CALM      30.32F
LITTLE FALLS   FAIR      32  27  80 CALM      30.33S
LITCHFIELD     FAIR      37  32  81 CALM      30.34S
BUFFALO        FAIR      34  28  80 CALM      30.35S
MAPLE LAKE     FAIR      32  30  94 CALM      30.34F
HUTCHINSON     FAIR      37  35  94 CALM      30.34S
$$
MNZ037-044-045-052-053-220800-
   East Central Minnesota

CITY           SKY/WX    TMP DP  RH WIND       PRES   REMARKS
PRINCETON      FAIR      30  27  86 CALM      30.34S
MORA           FAIR      30  25  80 CALM      30.35S
CAMBRIDGE      FAIR      34  23  64 CALM      30.34S
RUSH CITY      FAIR      31  26  79 CALM      30.34S
MOOSE LAKE     FAIR      28  21  74 CALM      30.31F
HINCKLEY       FAIR      30  23  74 CALM      30.33S
CLOQUET        FAIR      30  16  55 CALM      30.32S
MCGREGOR       FAIR      30  21  69 E3        30.31F
$$
MNZ071>073-080-081-089-090-097-098-220800-
   Southwest Minnesota

CITY           SKY/WX    TMP DP  RH WIND       PRES   REMARKS
MONTEVIDEO     CLEAR     37  34  87 S3        30.32F
GRANITE FALLS  CLEAR     37  34  89 CALM      30.34S
CANBY          CLEAR     34  32  92 CALM      30.32S
MARSHALL       CLEAR     34  29  82 CALM      30.32F
REDWOOD FALLS  CLEAR     38  33  82 CALM      30.32F
OLIVIA         CLEAR     36  32  87 CALM      30.32F
PIPESTONE      CLOUDY   N/A N/A N/A SE8       30.29S
WINDOM         CLOUDY    37  21  52 E3        30.32S
WORTHINGTON    CLOUDY    35  32  88 NE5       30.31F WCI  31
JACKSON        CLOUDY    36  32  87 CALM      30.32S
TRACY          CLEAR     39  32  76 S3        30.31S
SLAYTON        CLOUDY    34  31  89 CALM      30.32S
$$
MNZ065>067-074>077-082>085-091>093-220800-
   South Central Minnesota

CITY           SKY/WX    TMP DP  RH WIND       PRES   REMARKS
MANKATO        FAIR      41  35  79 E5        30.33S
NEW ULM        CLOUDY    39  32  75 CALM      30.33S
ST JAMES       CLOUDY    36  34  93 CALM      30.34S
FAIRMONT       CLOUDY    37  31  78 E3        30.32F
GLENCOE        FAIR      35  35 100 CALM      30.33S
OWATONNA       FAIR      37  34  87 E3        30.33S
WASECA         FAIR      37  32  81 E3        30.34S
ALBERT LEA     FAIR      37  30  75 CALM      30.33S
$$
MNZ078>079-086>088-094>096-220800-
   Southeast Minnesota

CITY           SKY/WX    TMP DP  RH WIND       PRES   REMARKS
ROCHESTER      FAIR      42  33  70 E5        30.33F
RED WING       FAIR      32  27  80 CALM      30.34S
STANTON        FAIR      33  31  90 CALM      30.33S
DODGE CENTER   FAIR      37  32  81 E3        30.33F
WINONA         FAIR      36  32  87 CALM      30.33F
AUSTIN         FAIR      39  30  70 CALM      30.33S
PRESTON        FAIR      41  31  67 CALM      30.34S
$$
ABBREVIATIONS USED IN REMARKS
   TC - TEMPERATURES IN CELSIUS
  WCI - WIND CHILL INDEX
   HX - HEAT INDEX
  VSB - VISIBILITY
$$




USA.gov is the U.S. government's official web portal to all federal, state and local government web resources and services.